Regional Weather Roundup
Issued by NWS Cleveland, OH

Home | Current Version | Previous Version | Text Only | Print | Product List | Glossary Off
Versions: 1 2 3 4 5 6 7 8 9 10 11 12 13 14 15 16 17 18 19 20 21 22 23 24 25 26 27 28 29 30 31 32 33 34 35 36 37 38 39 40 41 42 43 44 45 46 47 48 49 50

671
ASUS41 KCLE 240700
RWRCLE
OHIO REGIONAL WEATHER ROUNDUP
NATIONAL WEATHER SERVICE WILMINGTON, OH
300 AM EDT TUE MAY 24 2016

NOTE: "FAIR" INDICATES FEW OR NO CLOUDS BELOW 12,000 FEET WITH NO
SIGNIFICANT WEATHER AND/OR OBSTRUCTIONS TO VISIBILITY.

OHZ001>008-015>018-024>027-034-035-043-044-240800-
   NORTHWEST OHIO

CITY           SKY/WX    TMP DP  RH WIND       PRES   REMARKS
DEFIANCE       FAIR      52  46  80 CALM      30.00F
FINDLAY        FAIR      56  46  69 SE6       30.01F
TOLEDO EXPRESS FAIR      51  48  89 CALM      30.00F
TOLEDO EXEC    FAIR      56  46  69 S3        30.01F
LIMA           FAIR      57  46  66 S5        30.02S
$$

OHZ009>014-019>023-028>033-038-089-240800-
   NORTHEAST OHIO

CITY           SKY/WX    TMP DP  RH WIND       PRES   REMARKS
CLE-HOPKINS    FAIR      55  47  74 S3        30.04R
CLE-LAKEFRONT  FAIR      59  48  67 S7        30.00S
CUY CO. ARPT   NOT AVBL
LORAIN-ELYRIA  FAIR      53  46  77 S3        30.03S
ASHTABULA      FAIR      47  45  93 CALM      30.02S
AKRON-CANTON   FAIR      53  45  74 W5        30.03S
WOOSTER        NOT AVBL
MANSFIELD      FAIR      53  50  89 S5        30.04S
YOUNGSTOWN     FAIR      48  46  93 CALM      30.01F
$$

OHZ042-051>053-060>062-070>072-077>081-240800-
  SOUTHWEST OHIO

CITY           SKY/WX    TMP DP  RH WIND       PRES   REMARKS
CINC-COVINGTON FAIR      54  52  93 S3        30.03S
CINC-LUNKEN    FAIR      52  52 100 CALM      30.04S
HAMILTON       FAIR      51  50  96 CALM      30.04S
DAYTON         NOT AVBL
WRIGHT-PAT AFB NOT AVBL
DAYTON GENERAL FAIR      60  46  59 CALM      30.02F
WILMINGTON     FAIR      54  51  90 SW3       30.03F
$$

OHZ036-037-039>041-045>050-054>059-063>069-073>076-082>088-240800-
  CENTRAL AND SOUTHEAST OHIO

CITY           SKY/WX    TMP DP  RH WIND       PRES   REMARKS
COLUMBUS       FAIR      54  51  90 CALM      30.02S
OSU AIRPORT    FAIR      57  49  74 CALM      30.02F
BOLTON FIELD   NOT AVBL
RICKENBACK AFB NOT AVBL
NEWARK         FAIR      52  50  93 CALM      30.03S FOG
MARION         FAIR      52  48  86 CALM      30.03S
LANCASTER      FAIR      50  48  93 CALM      30.04R
ZANESVILLE     FAIR      54  50  86 CALM      30.03S
NEW PHILLY     FAIR      54  50  86 CALM      30.04R
$$




USA.gov is the U.S. government's official web portal to all federal, state and local government web resources and services.